Content
SEND FEEDBACK

Daily
Averages
Monthly
Summary
Australia

CANNINGTON, WESTERN AUSTRALIA


Home > Oceania > Australia > Western Australia
Elevation: 59 feet     Latitude: 32 00S     Longitude: 115 53E

WEATHER
 
SELECT A DAY
Number of Records: 295,579;   Date Range: 7/1/96 - 10/19/14
 
SHARE

PRINT THIS DATA

[ ← Previous Day ]
WEATHER ALMANAC - FEBRUARY 13, 2013
[ Next Day → ]
[ °C ]   °F
Weather ElementAverageHighLow
Temperature87.1 °F102.2 °F (11:30 am)73.4 °F (12:30 am)
Dewpoint57.9 °F68 °F (8:30 pm)50 °F (11:30 am)
Humidity37.6 %74 % (11:30 pm)13 % (11:00 am)
Barometer29.84 in29.90 in (8:00 am)29.80 in (1:30 pm)
Wind Speed10.2 mph17.3 mph (11:45 am)
Weather ElementAverage
Visibility19 mi
Wind DirectionSSW (189.8 °)

Weather ElementTotal
Precipitation---
Cooling Degree Days22.8 (Base 65)
Growing Degree Days37.8 (Base 50)
Averaged from 64 records on February 13, 2013
WEATHER CONDITIONS BREAKOUT
WIND DIRECTION BREAKOUT
WEATHER BY HOUR - FEBRUARY 13, 2013
[ °C ]   °F
Local TimeTemperatureDewpointHumidityBarometerVisibilityWind DirectionWind SpeedGust SpeedPrecipitationEventsConditions
12:00 AM75.2 °F59.0 °F57 %29.89 inNNE (30°)6.9 mphClear
12:30 AM73.4 °F59.0 °F61 %29.86 inNorth (350°)4.6 mphClear
1:00 AM77.0 °F59.0 °F54 %29.86 inWNW (300°)4.6 mphClear
1:30 AM82.4 °F55.4 °F39 %29.86 inENE (70°)5.8 mphClear
2:00 AM84.0 °F53.0 °F25 %29.87 inNE (50°)10.4 mph
2:00 AM84.2 °F53.6 °F35 %29.86 inNE (50°)10.4 mphClear
2:30 AM80.6 °F59.0 °F48 %29.86 inNorth (10°)11.5 mphClear
3:00 AM77.0 °F62.6 °F61 %29.86 inNW (320°)4.6 mphClear
3:00 AM77.0 °F63.0 °F54 %29.86 in19.0 miNW (320°)4.6 mphPartly Cloudy
3:30 AM77.0 °F59.0 °F54 %29.86 inNorth (350°)4.6 mphClear
4:00 AM78.8 °F57.2 °F47 %29.86 inNNE (30°)8.1 mphClear
4:30 AM80.6 °F53.6 °F39 %29.86 inNE (40°)9.2 mphClear
5:00 AM79.0 °F54.0 °F32 %29.87 inNNE (20°)8.1 mph
5:00 AM78.8 °F53.6 °F42 %29.86 inNNE (20°)8.1 mphClear
5:30 AM78.8 °F55.4 °F44 %29.86 inENE (60°)8.1 mphClear
6:00 AM78.8 °F55.4 °F44 %29.86 inENE (60°)8.1 mphClear
6:00 AM78.0 °F54.0 °F34 %29.88 in19.0 miENE (60°)8.1 mphPartly Cloudy
6:30 AM78.8 °F53.6 °F42 %29.89 inENE (70°)11.5 mphClear
7:00 AM80.6 °F55.4 °F42 %29.89 inENE (70°)10.4 mphClear
7:30 AM84.2 °F55.4 °F37 %29.89 inENE (70°)11.5 mphClear
8:00 AM86.0 °F54.0 °F24 %29.90 inENE (70°)12.7 mph
8:00 AM86.0 °F53.6 °F33 %29.89 inENE (70°)12.7 mphClear
8:30 AM87.8 °F55.4 °F33 %29.89 inENE (70°)10.4 mphClear
9:00 AM91.4 °F55.4 °F29 %29.89 inENE (70°)9.2 mphClear
9:00 AM91.0 °F56.0 °F21 %29.89 in19.0 miENE (70°)9.2 mphPartly Cloudy
9:30 AM95.0 °F55.4 °F26 %29.89 inNorth (360°)5.8 mphClear
10:00 AM95.0 °F53.6 °F25 %29.89 inSouth (170°)4.6 mphClear
10:30 AM96.8 °F53.6 °F23 %29.86 inNNW (330°)6.9 mphClear
11:00 AM98.0 °F53.0 °F13 %29.87 inWSW (250°)8.1 mph
11:00 AM98.6 °F53.6 °F22 %29.86 inWSW (250°)8.1 mphClear
11:30 AM102.2 °F50.0 °F17 %29.86 inWest (280°)8.1 mphClear
11:45 AM102.2 °F55.4 °F21 %29.83 inWSW (250°)17.3 mphClear
12:00 PM98.6 °F57.2 °F25 %29.83 inWSW (250°)16.1 mphClear
12:00 PM99.0 °F57.0 °F16 %29.85 in19.0 miWSW (250°)16.1 mphPartly Cloudy
12:30 PM98.6 °F60.8 °F29 %29.83 inWSW (240°)16.1 mphClear
1:00 PM98.6 °F59.0 °F27 %29.83 inWSW (250°)15.0 mphClear
1:30 PM96.8 °F57.2 °F27 %29.80 inWSW (250°)15.0 mphClear
2:00 PM95.0 °F61.0 °F23 %29.82 inSW (230°)15.0 mph
2:00 PM95.0 °F60.8 °F32 %29.80 inSW (230°)15.0 mphClear
2:30 PM95.0 °F57.2 °F28 %29.80 inWSW (240°)15.0 mphClear
3:00 PM96.8 °F55.4 °F25 %29.80 inWSW (250°)15.0 mphClear
3:00 PM96.0 °F55.0 °F17 %29.81 in19.0 miWSW (250°)15.0 mphPartly Cloudy
3:30 PM95.0 °F53.6 °F25 %29.80 inWSW (250°)13.8 mphClear
4:00 PM95.0 °F53.6 °F25 %29.80 inWest (260°)13.8 mphClear
4:30 PM95.0 °F53.6 °F25 %29.80 inWSW (240°)15.0 mphClear
5:00 PM93.0 °F55.0 °F18 %29.80 inSW (230°)17.3 mph
5:00 PM93.2 °F55.4 °F28 %29.80 inSW (230°)17.3 mphClear
5:30 PM91.4 °F57.2 °F31 %29.80 inSW (230°)13.8 mphClear
6:00 PM89.6 °F57.2 °F33 %29.80 inSW (230°)11.5 mphClear
6:00 PM90.0 °F58.0 °F24 %29.80 in19.0 miSW (230°)11.5 mphPartly Cloudy
6:30 PM89.6 °F57.2 °F33 %29.80 inSW (230°)10.4 mphClear
7:00 PM87.8 °F55.4 °F33 %29.80 inSSW (200°)11.5 mphClear
7:30 PM87.8 °F57.2 °F35 %29.80 inWSW (240°)9.2 mphClear
8:00 PM85.0 °F61.0 °F34 %29.82 inSW (230°)9.2 mph
8:00 PM84.2 °F60.8 °F45 %29.80 inSW (230°)9.2 mphClear
8:30 PM82.4 °F68.0 °F62 %29.83 inWest (270°)6.9 mphClear
9:00 PM80.6 °F68.0 °F65 %29.83 inWest (260°)6.9 mphClear
9:00 PM81.0 °F68.0 °F55 %29.84 in19.0 miWest (260°)6.9 mphPartly Cloudy
9:30 PM80.6 °F68.0 °F65 %29.83 inWSW (240°)9.2 mphClear
10:00 PM78.8 °F68.0 °F69 %29.83 inWSW (240°)6.9 mphClear
10:30 PM78.8 °F68.0 °F69 %29.83 inSSW (200°)6.9 mphClear
11:00 PM78.0 °F68.0 °F63 %29.84 inSSW (210°)6.9 mph
11:00 PM78.8 °F68.0 °F69 %29.83 inSSW (210°)6.9 mphClear
11:30 PM77.0 °F68.0 °F74 %29.83 inSSW (200°)6.9 mphClear
Hourly data recorded from YPPH, located miles away from Cannington, Western Australia







STORIES FROM OUR PARTNERS